Content
SEND FEEDBACK

Daily
Averages
Monthly
Summary
United States of America

BURLINGTON, IOWA


Home > North America > United States > Iowa
Elevation: 695 feet     Latitude: 40 47N     Longitude: 091 07W

WEATHER
 
SELECT A DAY
Number of Records: 207,479;   Date Range: 1/1/95 - 10/20/14
 
SHARE

PRINT THIS DATA

[ ← Previous Day ]
WEATHER ALMANAC - JANUARY 31, 2013
[ Next Day → ]
[ °C ]   °F
Weather ElementAverageHighLow
Temperature10.6 °F21.9 °F (1:53 am)3.9 °F (11:53 pm)
Dewpoint2.6 °F14 °F (1:53 am)-4 °F (10:53 pm)
Humidity70.3 %79 % (7:05 am)62 % (2:43 pm)
Barometer30.09 in30.38 in (11:53 pm)29.85 in (3:06 am)
Wind Speed14.2 mph21.9 mph (1:08 pm)
Wind Gust31.1 mph (6:22 pm)
Weather ElementAverage
Visibility8.5 mi
Wind DirectionWNW (298.5 °)

Weather ElementTotal
Precipitation---
Heating Degree Days52.1 (Base 65)
Averaged from 40 records on January 31, 2013
WEATHER CONDITIONS BREAKOUT
WIND DIRECTION BREAKOUT
WEATHER BY HOUR - JANUARY 31, 2013
[ °C ]   °F
Local TimeTemperatureDewpointHumidityBarometerVisibilityWind DirectionWind SpeedGust SpeedPrecipitationEventsConditions
1:53 AM21.9 °F14.0 °F72 %29.87 in10.0 miWest (280°)11.5 mph21.9 mphOvercast
2:53 AM21.0 °F12.9 °F71 %29.88 in9.0 miWNW (290°)13.8 mph25.3 mph0.00 inSnowLight Snow
3:06 AM21.2 °F12.2 °F68 %29.85 in10.0 miWest (280°)18.4 mph25.3 mph0.00 inOvercast
3:53 AM18.0 °F10.0 °F71 %29.90 in10.0 miWNW (300°)12.7 mph21.9 mph0.00 inMostly Cloudy
4:53 AM15.1 °F9.0 °F77 %29.91 in10.0 miWNW (290°)9.2 mphClear
5:53 AM14.0 °F7.0 °F74 %29.92 in10.0 miWNW (290°)10.4 mphClear
6:53 AM12.9 °F7.0 °F77 %29.94 in10.0 miWNW (300°)12.7 mph20.7 mphScattered Clouds
7:05 AM12.2 °F6.8 °F79 %29.91 in10.0 miWNW (300°)10.4 mph18.4 mphMostly Cloudy
7:33 AM12.2 °F6.8 °F79 %29.93 in10.0 miNW (310°)13.8 mph20.7 mphOvercast
7:53 AM12.0 °F6.1 °F77 %29.97 in5.0 miWNW (300°)12.7 mph20.7 mph0.00 inSnowLight Snow
8:23 AM12.2 °F6.8 °F79 %29.95 in2.5 miWNW (300°)11.5 mph0.00 inSnowLight Snow
8:48 AM12.2 °F5.0 °F73 %29.96 in7.0 miWNW (290°)11.5 mph17.3 mph0.00 inOvercast
8:53 AM12.0 °F5.0 °F73 %30.00 in9.0 miWNW (300°)12.7 mph18.4 mph0.00 inOvercast
9:53 AM12.0 °F3.9 °F70 %30.04 in10.0 miNW (310°)12.7 mph18.4 mphOvercast
10:09 AM12.2 °F3.2 °F67 %30.01 in10.0 miWNW (300°)16.1 mph21.9 mphOvercast
10:32 AM10.4 °F3.2 °F73 %30.01 in9.0 miWNW (290°)13.8 mph20.7 mphOvercast
10:44 AM12.2 °F3.2 °F67 %30.02 in9.0 miWNW (300°)11.5 mph23.0 mphOvercast
10:53 AM10.9 °F1.9 °F67 %30.06 in9.0 miWNW (300°)13.8 mph21.9 mphOvercast
11:53 AM10.9 °F3.0 °F70 %30.09 in7.0 miWNW (300°)12.7 mph23.0 mphOvercast
12:53 PM10.9 °F1.9 °F67 %30.08 in10.0 miWNW (300°)13.8 mph24.2 mphOvercast
1:08 PM10.4 °F1.4 °F67 %30.05 in10.0 miNW (310°)21.9 mph27.6 mphOvercast
2:43 PM10.4 °F-0.4 °F62 %30.10 in9.0 miWNW (290°)16.1 mph28.8 mph0.00 inOvercast
2:53 PM10.0 °F1.0 °F67 %30.14 in5.0 miNW (310°)17.3 mph24.2 mph0.00 inHaze
3:08 PM10.4 °F1.4 °F67 %30.11 in4.0 miWNW (300°)15.0 mph25.3 mphHaze
3:53 PM9.0 °F1.9 °F73 %30.17 in2.0 miWNW (300°)16.1 mph29.9 mph0.00 inSnowLight Snow
4:07 PM8.6 °F-0.4 °F67 %30.14 in9.0 miWNW (300°)16.1 mph27.6 mph0.00 inOvercast
4:21 PM8.6 °F1.4 °F73 %30.14 in1.8 miNW (310°)17.3 mph26.5 mph0.00 inSnowLight Snow
4:33 PM8.6 °F-0.4 °F67 %30.14 in3.0 miWNW (300°)16.1 mph24.2 mph0.00 inSnowLight Snow
4:50 PM8.6 °F-2.2 °F62 %30.16 in10.0 miWNW (300°)16.1 mph27.6 mph0.00 inScattered Clouds
4:53 PM8.1 °F-2.0 °F64 %30.20 in10.0 miWNW (300°)13.8 mph27.6 mph0.00 inScattered Clouds
5:53 PM7.0 °F-2.9 °F64 %30.23 in10.0 miWNW (300°)17.3 mph25.3 mph0.00 inClear
6:22 PM6.8 °F-2.2 °F67 %30.21 in10.0 miWNW (300°)16.1 mph31.1 mphMostly Cloudy
6:53 PM6.1 °F-2.0 °F69 %30.27 in10.0 miNW (310°)17.3 mph25.3 mphMostly Cloudy
7:53 PM5.0 °F-2.2 °F72 %30.24 in10.0 miWNW (300°)16.1 mph23.0 mphMostly Cloudy
8:16 PM5.0 °F-2.2 °F72 %30.25 in10.0 miWNW (300°)15.0 mph23.0 mphPartly Cloudy
8:45 PM5.0 °F-2.2 °F72 %30.26 in10.0 miWNW (290°)12.7 mphMostly Cloudy
8:53 PM5.0 °F-2.9 °F70 %30.31 in10.0 miWNW (300°)15.0 mph21.9 mphMostly Cloudy
9:53 PM5.0 °F-2.9 °F70 %30.33 in10.0 miWNW (290°)13.8 mph20.7 mphOvercast
10:53 PM5.0 °F-4.0 °F66 %30.35 in10.0 miWNW (300°)12.7 mph23.0 mphOvercast
11:53 PM3.9 °F-4.0 °F70 %30.38 in10.0 miWNW (300°)10.4 mph17.3 mphMostly Cloudy
Hourly data recorded from KBRL, located miles away from Burlington, Iowa







STORIES FROM OUR PARTNERS